This demonstration page uses our WeatherBlox Daily Observations layout. Learn more.

Hourly Observations for June 17, 2017

Temp ( °F °C ) Dew Point ( °F °C ) Humidity (%) Winds ( mph kmh ) Pressure ( in mb ) Visibility ( mi km ) Precip ( " mm )
12:15 am 00:15 Partly Cloudy with Mist and Fog 73 23 73 23 100 100 Calm 29.91 1013 5 8.04672 0 0
12:35 am 00:35 Partly Cloudy with Mist and Fog 73 23 73 23 100 100 Calm 29.91 1013 5 8.04672 0 0
12:55 am 00:55 Mostly Cloudy 73 23 73 23 100 100 Calm 29.91 1013 7 11.265408 0 0
1:15 am 01:15 Cloudy 73 23 73 23 100 100 Calm 29.91 1013 7 11.265408 0 0
1:35 am 01:35 Partly Cloudy 73 23 73 23 100 100 SSE 3 6 29.88 1012 7 11.265408 0 0
1:55 am 01:55 Clear 73 23 73 23 100 100 Calm 29.91 1013 7 11.265408 0 0
2:15 am 02:15 Partly Cloudy with Mist and Fog 72 22 72 22 100 100 NW 3 6 29.91 1013 4 6.437376 0 0
2:35 am 02:35 Partly Cloudy with Mist and Fog 72 22 72 22 100 100 Calm 29.88 1012 4 6.437376 0 0
2:55 am 02:55 Mostly Cloudy with Mist and Fog 72 22 72 22 100 100 Calm 29.88 1012 5 8.04672 0 0
3:15 am 03:15 Mostly Cloudy with Mist and Fog 72 22 72 22 100 100 Calm 29.88 1012 5 8.04672 0 0
3:35 am 03:35 Partly Cloudy with Mist and Fog 72 22 72 22 100 100 Calm 29.88 1012 5 8.04672 0 0
3:55 am 03:55 Clear with Mist and Fog 72 22 72 22 100 100 Calm 29.88 1012 5 8.04672 0 0
4:15 am 04:15 Mostly Cloudy with Mist and Fog 72 22 72 22 100 100 ENE 3 6 29.88 1012 4 6.437376 0 0
4:35 am 04:35 Partly Cloudy with Mist and Fog 72 22 72 22 100 100 E 3 6 29.88 1012 4 6.437376 0 0
4:55 am 04:55 Partly Cloudy with Mist and Fog 72 22 72 22 100 100 Calm 29.88 1012 4 6.437376 0 0
5:15 am 05:15 Cloudy with Mist and Fog 72 22 72 22 100 100 Calm 29.88 1012 5 8.04672 0 0
5:35 am 05:35 Cloudy 72 22 72 22 100 100 ESE 3 6 29.91 1013 7 11.265408 0 0
5:55 am 05:55 Cloudy 72 22 72 22 100 100 Calm 29.91 1013 7 11.265408 0 0
6:15 am 06:15 Cloudy 72 22 72 22 100 100 Calm 29.91 1013 10 16.09344 0 0
6:35 am 06:35 Cloudy 72 22 72 22 100 100 Calm 29.91 1013 7 11.265408 0 0
6:55 am 06:55 Cloudy 72 22 72 22 100 100 Calm 29.91 1013 7 11.265408 0 0
7:15 am 07:15 Cloudy 72 22 72 22 100 100 S 5 7 29.91 1013 10 16.09344 0 0
7:35 am 07:35 Cloudy 73 23 72 22 94 94 S 5 7 29.91 1013 10 16.09344 0 0
7:55 am 07:55 Cloudy 72 22 72 22 100 100 Calm 29.91 1013 10 16.09344 0 0
8:15 am 08:15 Cloudy 73 23 73 23 100 100 Calm 29.91 1013 7 11.265408 0 0
8:35 am 08:35 Cloudy 73 23 72 22 94 94 Calm 29.94 1014 10 16.09344 0 0
8:55 am 08:55 Cloudy 73 23 72 22 94 94 S 5 7 29.94 1014 10 16.09344 0 0
9:15 am 09:15 Cloudy 73 23 73 23 100 100 S 5 7 29.94 1014 10 16.09344 0 0
9:35 am 09:35 Cloudy 75 24 73 23 94 94 S 6 9 29.94 1014 10 16.09344 0 0
9:55 am 09:55 Cloudy 77 25 73 23 89 89 S 7 11 29.94 1014 10 16.09344 0 0
10:15 am 10:15 Cloudy 77 25 73 23 89 89 S 8 13 29.94 1014 10 16.09344 0 0
10:35 am 10:35 Cloudy 77 25 73 23 89 89 S 7 11 29.94 1014 10 16.09344 0 0
10:55 am 10:55 Cloudy 77 25 73 23 89 89 S 6 9 29.94 1014 10 16.09344 0 0
11:15 am 11:15 Cloudy with Light Rain 75 24 73 23 94 94 S 7 11 29.94 1014 4 6.437376 0 0
11:35 am 11:35 Cloudy 77 25 73 23 89 89 S 6 9 29.94 1014 10 16.09344 0 0
11:55 am 11:55 Cloudy 77 25 73 23 89 89 S 9 15 29.94 1014 10 16.09344 0 0
12:15 pm 12:15 Cloudy 77 25 73 23 89 89 SSW 5 7 29.94 1014 10 16.09344 0 0
12:35 pm 12:35 Cloudy 79 26 73 23 84 84 S 3 6 29.91 1013 10 16.09344 0 0
12:55 pm 12:55 Cloudy 81 27 73 23 79 79 S 8 13 29.91 1013 10 16.09344 0 0
1:15 pm 13:15 Cloudy 82 28 73 23 74 74 SSW 8 13 29.91 1013 10 16.09344 0 0
1:35 pm 13:35 Cloudy 82 28 72 22 70 70 S 6 9 29.91 1013 10 16.09344 0 0
1:55 pm 13:55 Cloudy 84 29 72 22 66 66 S 9 15 29.91 1013 10 16.09344 0 0
2:15 pm 14:15 Mostly Cloudy 86 30 72 22 62 62 SSW 9 15 29.85 1011 10 16.09344 0 0
2:35 pm 14:35 Mostly Cloudy 88 31 72 22 59 59 SSW 9 15 29.85 1011 10 16.09344 0 0
2:55 pm 14:55 Mostly Cloudy 88 31 72 22 59 59 SSW 9 15 29.85 1011 10 16.09344 0 0
3:15 pm 15:15 Mostly Cloudy 88 31 72 22 59 59 S 7 11 29.85 1011 10 16.09344 0 0
3:35 pm 15:35 Mostly Cloudy 88 31 72 22 59 59 SSW 10 17 29.85 1011 N/A 0 0
3:55 pm 15:55 Mostly Cloudy 88 31 72 22 59 59 SW 6 9 29.85 1011 N/A 0 0
4:15 pm 16:15 Partly Cloudy 88 31 72 22 59 59 SSW 8 13 29.85 1011 10 16.09344 0 0
4:35 pm 16:35 Partly Cloudy 88 31 73 23 62 62 S 7 11 29.83 1010 10 16.09344 0 0
4:55 pm 16:55 Mostly Cloudy 90 32 72 22 55 55 S 9 15 29.83 1010 N/A 0 0
5:15 pm 17:15 Mostly Cloudy 88 31 72 22 59 59 S 9 15 29.83 1010 N/A 0 0
5:35 pm 17:35 Mostly Cloudy 88 31 72 22 59 59 S 10 17 29.83 1010 N/A 0 0
5:55 pm 17:55 Cloudy 88 31 73 23 62 62 S 12 19 29.83 1010 N/A 0 0
6:15 pm 18:15 Mostly Cloudy 86 30 73 23 66 66 S 9 15 29.83 1010 N/A 0 0
6:35 pm 18:35 Mostly Cloudy 86 30 73 23 66 66 S 14 22 29.83 1010 N/A 0 0
6:55 pm 18:55 Mostly Cloudy 84 29 73 23 70 70 S 6 9 29.83 1010 10 16.09344 0 0
7:15 pm 19:15 Partly Cloudy 86 30 73 23 66 66 S 7 11 29.83 1010 10 16.09344 0 0
7:35 pm 19:35 Partly Cloudy 86 30 73 23 66 66 S 8 13 29.85 1011 10 16.09344 0 0
7:55 pm 19:55 Partly Cloudy 84 29 73 23 70 70 S 8 13 29.83 1010 10 16.09344 0 0
8:15 pm 20:15 Sunny 82 28 72 22 70 70 S 6 9 29.85 1011 10 16.09344 0 0
8:35 pm 20:35 Sunny 82 28 72 22 70 70 S 5 7 29.88 1012 10 16.09344 0 0
8:55 pm 20:55 Clear 82 28 72 22 70 70 S 5 7 29.88 1012 10 16.09344 0 0
9:15 pm 21:15 Clear 81 27 72 22 74 74 SSW 5 7 29.88 1012 10 16.09344 0 0
9:35 pm 21:35 Partly Cloudy 81 27 73 23 79 79 S 3 6 29.88 1012 10 16.09344 0 0
9:55 pm 21:55 Partly Cloudy 81 27 73 23 79 79 SSE 6 9 29.88 1012 10 16.09344 0 0
10:15 pm 22:15 Clear 81 27 73 23 79 79 S 7 11 29.88 1012 10 16.09344 0 0
10:35 pm 22:35 Clear 79 26 73 23 84 84 S 8 13 29.88 1012 10 16.09344 0 0
10:55 pm 22:55 Clear 79 26 73 23 84 84 S 8 13 29.88 1012 10 16.09344 0 0
11:15 pm 23:15 Clear 79 26 73 23 84 84 S 9 15 29.88 1012 10 16.09344 0 0
11:35 pm 23:35 Clear 79 26 73 23 84 84 S 13 20 29.88 1012 10 16.09344 0 0
11:55 pm 23:55 Clear 79 26 73 23 84 84 SSE 10 17 29.88 1012 10 16.09344 0 0

Powered by AerisWeather